Regional Weather Roundup
Issued by NWS

Home | Current Version | Previous Version | Graphics & Text | Print | Product List | Glossary On
Versions: 1 2 3 4 5 6 7 8 9 10 11 12 13 14 15 16 17 18 19 20 21 22 23 24 25 26 27 28 29 30 31 32 33 34 35 36 37 38 39 40 41 42 43 44 45 46 47 48 49 50
000
ASUS43 KMKX 200400
RWRWI

WISCONSIN REGIONAL WEATHER ROUNDUP
NATIONAL WEATHER SERVICE MILWAUKEE/SULLIVAN WI
1100 PM CDT TUE SEP 19 2017

NOTE: "FAIR" INDICATES FEW OR NO CLOUDS BELOW 12,000 FEET WITH NO
SIGNIFICANT WEATHER AND/OR OBSTRUCTIONS TO VISIBILITY.

WIZ001-002-006>008-014>016-023>028-200500-
NORTHWEST WISCONSIN

CITY           SKY/WX    TMP DP  RH WIND       PRES   REMARKS
SUPERIOR ARPT  CLEAR     61  60  96 NE8       29.72F
ASHLAND        PTCLDY    66  58  75 SE9G17    29.78F
HAYWARD        CLEAR     66  57  72 SE15G21   29.77F
SIREN          CLEAR     70  58  65 SE13G22   29.71S
CUMBERLAND     PTCLDY    64  54  68 SE16G24   29.74F
RICE LAKE      PTCLDY    67  55  63 SE18      29.77F
CHETEK         PTCLDY    66  57  72 SE15G21   29.78F
LADYSMITH      CLOUDY    67  58  75 SE12      29.84F
EAU CLAIRE     NOT AVBL
MENOMONIE      CLOUDY    67  61  80 SE9       29.77F
NEW RICHMOND   PTCLDY    70  61  73 SE15G21   29.70F
OSCEOLA        CLOUDY    70  62  74 SE17G24   29.71F
$$

WIZ003>005-009-010-017-018-200500-
NORTH CENTRAL WISCONSIN

CITY           SKY/WX    TMP DP  RH WIND       PRES   REMARKS
MANITOWISH WTR CLOUDY    61  59  93 SE10      29.89S
ARBOR VITAE    CLOUDY    62  57  83 SE10G17   29.89F
WOODRUFF       CLOUDY    62  57  83 SE10G17   29.89F
RHINELANDER    CLEAR     59  55  87 SE12      29.92F
EAGLE RIVER    CLEAR     59  53  81 SE8       29.92F
LAND O LAKES   CLEAR     59  56  88 SE8       29.94F
PHILLIPS       CLEAR     62  59  90 SE12G17   29.86F
TOMAHAWK         N/A     59  53  79 SE6       29.91F
MEDFORD        CLOUDY    61  57  86 SE10      29.88S
MERRILL        NOT AVBL
$$

WIZ029-030-035-036-043>047-200500-
CENTRAL WISCONSIN

CITY           SKY/WX    TMP DP  RH WIND       PRES   REMARKS
WAUSAU         CLEAR     61  57  87 SE9       29.90R
MOSINEE        CLEAR     61  57  88 SE8       29.92R
MARSHFIELD     CLEAR     63  58  83 SE12      29.87F
STEVENS POINT  CLEAR     60  60  98 E9        29.91S
WAUPACA        CLEAR     64  62  92 E8        29.92S
WAUTOMA        CLEAR     62  61  96 E6        29.91S FOG
WISC RAPIDS    CLEAR     64  60  87 SE8       29.90S
CAMP DOUGLAS   NOT AVBL
$$

WIZ011>013-019>022-031-037>040-048>050-200500-
NORTHEAST WISCONSIN

CITY           SKY/WX    TMP DP  RH WIND       PRES   REMARKS
ANTIGO         CLEAR     56  54  93 E8        29.94F
SHAWANO        CLEAR     61  56  84 E5        29.94R
OCONTO         CLEAR     56  54  94 E3        29.93F
STURGEON BAY   CLEAR     62  60  93 E5        29.95F
GREEN BAY      CLEAR     59  58  96 E5        29.93F
MANITOWOC      LGT RAIN  55  54  96 CALM      29.94F
APPLETON       PTCLDY    61  57  88 E6        29.92S
CLINTONVILLE   PTCLDY    59  55  88 CALM      29.93S
OSHKOSH        CLEAR     61  59  93 SE6       29.92S
$$

WIZ032>034-041-042-053>061-200500-
SOUTHWEST WISCONSIN

CITY           SKY/WX    TMP DP  RH WIND       PRES   REMARKS
LA CROSSE      CLOUDY    73  64  73 SE10      29.80F
SPARTA         CLOUDY    67  61  80 E5        29.85S
VIROQUA        CLOUDY    67  64  91 SE9       29.86S
BOSCOBEL       CLEAR     69  64  84 VRB5      29.86R
PRAIRIE DU CHI CLEAR     70  62  74 SE6       29.83S
PLATTEVILLE    CLEAR     66  66  98 SE7       29.88S
$$

WIZ056-057-062-063-064-067-068-200500-
SOUTH CENTRAL WISCONSIN

CITY           SKY/WX    TMP DP  RH WIND       PRES   REMARKS
REEDSBURG      CLEAR     67  65  96 SE6       29.88R
BARABOO/DELLS  CLEAR     66  61  82 SE12      29.89R
LONE ROCK      NOT AVBL
MINERAL POINT  CLEAR     68  66  94 SE10      29.89R
MADISON        CLEAR     65  63  93 SE8       29.90S
MIDDLETON      CLEAR     68  64  86 SE12      29.90S
WATERTOWN      CLEAR     62  62 100 E6        29.91S FOG
MONROE         CLEAR     64  59  82 SE8       29.91R
JANESVILLE     CLEAR     63  63 100 SE6       29.90F
$$

WIZ051-052-058>065-066-070>072-200500-
SOUTHEAST WISCONSIN

CITY           SKY/WX    TMP DP  RH WIND       PRES   REMARKS
MILWAUKEE      PTCLDY    63  63 100 CALM      29.94R FOG
WAUKESHA       MOCLDY    61  59  94 E6        29.94  FOG
MILWAUKEE/TIMM MOCLDY    63  59  88 E3        29.95S HAZE
RACINE         FOG       61  61 100 N3        29.96R VSB 1/4
BURLINGTON     CLOUDY    62  62 100 SE3       29.94S FOG
KENOSHA        FOG       61  60  97 CALM      29.94S VSB<1/4
FOND DU LAC    CLEAR     61  57  87 S6        29.93R
SHEBOYGAN      FOG       57  57 100 CALM      29.94S VSB 1/2
WEST BEND      FOG       57  57 100 CALM      29.94F VSB 1/4
JUNEAU         CLOUDY    63  62  96 E9        29.92F FOG
$$

LSZ147-162-200500-
LAKE SUPERIOR

STATION/POSITION TIME  TEMP    WIND        PRES    WAVE
                       AIR SEA DIR/SP/G            HT/PER
                 (UTC) (F)     (DEG/KT/KT) (MB)    (FT/S)
W MID LAKE BUOY  0250   60 56  130/ 16/ 17 1010.6F   2/ 4
DEVILS ISLAND    0300   65     120/ 15/ 18 1009.1F
PORT WING        0230   65     130/  4/  8 1008.1F
SAXON HARBOR     0340   68     180/  8/ 16 1008.5F
$$

LMZ867-665-643>646-200500-
LAKE MICHIGAN

STATION/POSITION TIME  TEMP    WIND        PRES    WAVE
                       AIR SEA DIR/SP/G            HT/PER
                 (UTC) (F)     (DEG/KT/KT) (MB)    (FT/S)
S GREEN BAY BUOY 0200   64 67   90/ 10/ 12 1014.1
N MID LAKE BUOY  0250   65 65   90/ 12/ 14 1014.8F   1/ 3
NORTHPORT PIER   0340   65      90/  9/ 13 1013.9F
KEWAUNEE LAKESHO 0330   61      30/  1/  1 1013.1F
SHEBOYGAN LAKESH 0300   66     100/  9/  9 1013.6F
PORT WASHINGTON  0330   67     110/  5/  6 1014.6S
ATWATER BUOY     0209   66 68   90/  6/  8 1014.0F
MILWAUKEE LAKESH 0330   65      80/  4/  4   N/A
S MID LAKE BUOY  0250   68 69   40/  8/ 10 1013.6R   0
KENOSHA   LAKESH 0300   67      70/  3/  4 1013.5
$$

TC  - TEMPERATURE IN CELSIUS
VSB - VISIBILITY IN STATUTE MILES
WCI - WIND CHILL INDEX
HX  - HEAT INDEX





USA.gov is the U.S. government's official web portal to all federal, state and local government web resources and services.